This is the latest recevied weather packets stored in our database for station/object SP9MUF-14. If no packets are shown the sender has not sent any weather packets the latest 10 day(s).
| Time | Temp. | Humidity | Pressure | Rain* | Wind** | Luminosity | Snow |
|---|---|---|---|---|---|---|---|
| 1787754014 | 22.78° C | 48% | 1019.4 hPa | 0 mm | - | 189 W/m² | - |
| 1787753107 | 25.56° C | 45% | 1019.3 hPa | 0 mm | - | 198 W/m² | - |
| 1787752805 | 25° C | 46% | 1019.3 hPa | 0 mm | - | 339 W/m² | - |
| 1787752502 | 25° C | 46% | 1004 hPa | 0 mm | - | 143 W/m² | - |
| 1787752200 | 25° C | 47% | 1019.3 hPa | 0 mm | - | 348 W/m² | - |
| 1787751898 | 25° C | 49% | 1019.4 hPa | 0 mm | - | 367 W/m² | - |
| 1787751596 | 23.89° C | 50% | 1019.5 hPa | 0 mm | - | 371 W/m² | - |
| 1787751294 | 23.89° C | 52% | 1019.5 hPa | 0 mm | - | 401 W/m² | - |
| 1787750991 | 22.78° C | 51% | 1019.5 hPa | 0 mm | - | 340 W/m² | - |
| 1787750689 | 22.78° C | 52% | 1019.6 hPa | 0 mm | - | 187 W/m² | - |
| 1787750387 | 22.78° C | 54% | 1019.5 hPa | 0 mm | - | 231 W/m² | - |
| 1787750085 | 22.78° C | 53% | 1019.7 hPa | 0 mm | - | 233 W/m² | - |
| 1787749782 | 22.78° C | 54% | 1019.7 hPa | 0 mm | - | 257 W/m² | - |
| 1787749480 | 22.78° C | 55% | 1019.7 hPa | 0 mm | - | 269 W/m² | - |
| 1787749178 | 22.78° C | 57% | 1019.8 hPa | 0 mm | - | 234 W/m² | - |
| 1787748573 | 22.78° C | 55% | 1019.8 hPa | 0 mm | - | 166 W/m² | - |
| 1787747969 | 23.89° C | 53% | 1019.7 hPa | 0 mm | - | 291 W/m² | - |
| 1787747666 | 25° C | 53% | 1019.6 hPa | 0 mm | - | 229 W/m² | - |
| 1787747364 | 23.89° C | 51% | 1019.5 hPa | 0 mm | - | 617 W/m² | - |
| 1787747062 | 23.89° C | 53% | 1019.6 hPa | 0 mm | - | 606 W/m² | - |
| 1787746760 | 23.89° C | 52% | 1019.7 hPa | 0 mm | - | 596 W/m² | - |
| 1787746457 | 23.89° C | 52% | 1019.7 hPa | 0 mm | - | 610 W/m² | - |
| 1787746155 | 22.78° C | 54% | 1019.8 hPa | 0 mm | - | 461 W/m² | - |
| 1787745853 | 21.67° C | 59% | 1019.7 hPa | 0 mm | - | 644 W/m² | - |
| 1787745249 | 22.78° C | 55% | 1019.7 hPa | 0 mm | - | 305 W/m² | - |
* Rain latest hour (hover to see other rain measurements)
** Current wind speed in m/s (hover to see current wind gust speed)